Year,Month,Day,Hour,Minute,Value (Times are PST for temperature in C)
2015,06,29,00,00,17.80
2015,06,29,00,01,17.80
2015,06,29,00,02,17.80
2015,06,29,00,03,17.80
2015,06,29,00,04,17.80
2015,06,29,00,05,17.80
2015,06,29,00,06,17.80
2015,06,29,00,07,17.80
2015,06,29,00,08,17.80
2015,06,29,00,09,17.70
2015,06,29,00,10,17.70
2015,06,29,00,11,17.70
2015,06,29,00,12,17.70
2015,06,29,00,17,17.70
2015,06,29,00,18,17.70
2015,06,29,00,19,17.70
2015,06,29,00,20,17.80
2015,06,29,00,21,17.80
2015,06,29,00,22,17.80
2015,06,29,00,23,17.80
2015,06,29,00,24,17.80
2015,06,29,00,25,17.80
2015,06,29,00,26,17.80
2015,06,29,00,27,17.80
2015,06,29,00,28,17.80
2015,06,29,00,29,17.80
2015,06,29,00,30,17.80
2015,06,29,00,31,17.80
2015,06,29,00,32,17.80
2015,06,29,00,33,17.90
2015,06,29,00,34,17.90
2015,06,29,00,35,17.90
2015,06,29,00,36,17.90
2015,06,29,00,37,17.90
2015,06,29,00,38,17.90
2015,06,29,00,39,17.90
2015,06,29,00,40,17.80
2015,06,29,00,41,17.80
2015,06,29,00,42,17.80
2015,06,29,00,43,17.80
2015,06,29,00,44,17.80
2015,06,29,00,45,17.70
2015,06,29,00,46,17.70
2015,06,29,00,47,17.70
2015,06,29,00,48,17.70
2015,06,29,00,49,17.70
2015,06,29,00,50,17.70
2015,06,29,00,51,17.70
2015,06,29,00,52,17.70
2015,06,29,00,53,17.70
2015,06,29,00,54,17.70
2015,06,29,00,55,17.70
2015,06,29,00,56,17.70
2015,06,29,00,57,17.70
2015,06,29,00,58,17.70
2015,06,29,00,59,17.70
2015,06,29,01,00,17.70
2015,06,29,01,01,17.70
2015,06,29,01,02,17.70
2015,06,29,01,03,17.70
2015,06,29,01,04,17.80
2015,06,29,01,05,17.80
2015,06,29,01,06,17.80
2015,06,29,01,07,17.70
2015,06,29,01,08,17.70
2015,06,29,01,09,17.70
2015,06,29,01,10,17.70
2015,06,29,01,11,17.70
2015,06,29,01,12,17.70
2015,06,29,01,13,17.70
2015,06,29,01,14,17.70
2015,06,29,01,15,17.70
2015,06,29,01,16,17.70
2015,06,29,01,17,17.70
2015,06,29,01,18,17.70
2015,06,29,01,19,17.70
2015,06,29,01,20,17.70
2015,06,29,01,21,17.70
2015,06,29,01,22,17.70
2015,06,29,01,23,17.70
2015,06,29,01,24,17.70
2015,06,29,01,25,17.70
2015,06,29,01,26,17.70
2015,06,29,01,27,17.70
2015,06,29,01,28,17.70
2015,06,29,01,29,17.80
2015,06,29,01,30,17.80
2015,06,29,01,31,17.80
2015,06,29,01,32,17.80
2015,06,29,01,33,17.70
2015,06,29,01,34,17.70
2015,06,29,01,35,17.70
2015,06,29,01,36,17.70
2015,06,29,01,37,17.60
2015,06,29,01,38,17.60
2015,06,29,01,39,17.60
2015,06,29,01,40,17.60
2015,06,29,01,41,17.60
2015,06,29,01,42,17.60
2015,06,29,01,43,17.50
2015,06,29,01,44,17.50
2015,06,29,01,45,17.50
2015,06,29,01,46,17.50
2015,06,29,01,47,17.50
2015,06,29,01,48,17.50
2015,06,29,01,49,17.50
2015,06,29,01,50,17.50
2015,06,29,01,51,17.50
2015,06,29,01,52,17.50
2015,06,29,01,53,17.40
2015,06,29,01,54,17.40
2015,06,29,01,55,17.40
2015,06,29,01,56,17.40
2015,06,29,01,57,17.40
2015,06,29,01,58,17.30
2015,06,29,01,59,17.30
2015,06,29,02,00,17.30
2015,06,29,02,01,17.30
2015,06,29,02,02,17.30
2015,06,29,02,03,17.30
2015,06,29,02,04,17.30
2015,06,29,02,05,17.30
2015,06,29,02,06,17.40
2015,06,29,02,07,17.40
2015,06,29,02,08,17.40
2015,06,29,02,09,17.40
2015,06,29,02,10,17.40
2015,06,29,02,11,17.30
2015,06,29,02,12,17.30
2015,06,29,02,13,17.30
2015,06,29,02,14,17.30
2015,06,29,02,15,17.20
2015,06,29,02,16,17.20
2015,06,29,02,17,17.20
2015,06,29,02,18,17.20
2015,06,29,02,19,17.20
2015,06,29,02,20,17.20
2015,06,29,02,21,17.20
2015,06,29,02,22,17.20
2015,06,29,02,23,17.20
2015,06,29,02,24,17.20
2015,06,29,02,25,17.20
2015,06,29,02,26,17.20
2015,06,29,02,27,17.20
2015,06,29,02,28,17.20
2015,06,29,02,29,17.20
2015,06,29,02,30,17.20
2015,06,29,02,31,17.20
2015,06,29,02,32,17.20
2015,06,29,02,33,17.20
2015,06,29,02,34,17.30
2015,06,29,02,35,17.30
2015,06,29,02,36,17.20
2015,06,29,02,37,17.20
2015,06,29,02,38,17.20
2015,06,29,02,39,17.20
2015,06,29,02,40,17.10
2015,06,29,02,41,17.10
2015,06,29,02,42,17.10
2015,06,29,02,43,17.10
2015,06,29,02,44,17.10
2015,06,29,02,45,17.10
2015,06,29,02,46,17.10
2015,06,29,02,47,17.10
2015,06,29,02,48,17.20
2015,06,29,02,49,17.10
2015,06,29,02,50,17.10
2015,06,29,02,51,17.10
2015,06,29,02,52,17.10
2015,06,29,02,53,17.10
2015,06,29,02,54,17.10
2015,06,29,02,55,17.10
2015,06,29,02,56,17.10
2015,06,29,02,57,17.10
2015,06,29,02,58,17.10
2015,06,29,02,59,17.10
2015,06,29,03,00,17.20
2015,06,29,03,01,17.30
2015,06,29,03,02,17.30
2015,06,29,03,03,17.40
2015,06,29,03,04,17.40
2015,06,29,03,05,17.40
2015,06,29,03,06,17.30
2015,06,29,03,07,17.20
2015,06,29,03,08,17.20
2015,06,29,03,09,17.20
2015,06,29,03,10,17.20
2015,06,29,03,11,17.20
2015,06,29,03,12,17.20
2015,06,29,03,13,17.20
2015,06,29,03,14,17.10
2015,06,29,03,15,17.10
2015,06,29,03,16,17.10
2015,06,29,03,17,17.10
2015,06,29,03,18,17.10
2015,06,29,03,19,17.10
2015,06,29,03,20,17.10
2015,06,29,03,21,17.00
2015,06,29,03,22,17.00
2015,06,29,03,23,16.90
2015,06,29,03,24,16.90
2015,06,29,03,25,16.90
2015,06,29,03,26,16.90
2015,06,29,03,27,16.80
2015,06,29,03,28,16.80
2015,06,29,03,29,16.80
2015,06,29,03,30,16.80
2015,06,29,03,31,16.80
2015,06,29,03,32,16.80
2015,06,29,03,33,16.80
2015,06,29,03,34,16.70
2015,06,29,03,35,16.70
2015,06,29,03,36,16.70
2015,06,29,03,37,16.70
2015,06,29,03,38,16.70
2015,06,29,03,39,16.60
2015,06,29,03,40,16.60
2015,06,29,03,41,16.60
2015,06,29,03,42,16.60
2015,06,29,03,43,16.50
2015,06,29,03,44,16.50
2015,06,29,03,45,16.50
2015,06,29,03,46,16.40
2015,06,29,03,47,16.40
2015,06,29,03,48,16.40
2015,06,29,03,49,16.40
2015,06,29,03,50,16.30
2015,06,29,03,51,16.30
2015,06,29,03,52,16.30
2015,06,29,03,53,16.30
2015,06,29,03,54,16.20
2015,06,29,03,55,16.20
2015,06,29,03,56,16.20
2015,06,29,03,57,16.20
2015,06,29,03,58,16.20
2015,06,29,03,59,16.10
2015,06,29,04,00,16.10
2015,06,29,04,01,16.10
2015,06,29,04,02,16.10
2015,06,29,04,03,16.10
2015,06,29,04,04,16.10
2015,06,29,04,05,16.00
2015,06,29,04,06,16.00
2015,06,29,04,07,15.90
2015,06,29,04,08,15.90
2015,06,29,04,09,15.90
2015,06,29,04,10,15.90
2015,06,29,04,11,15.80
2015,06,29,04,12,15.80
2015,06,29,04,13,15.70
2015,06,29,04,14,15.70
2015,06,29,04,15,15.70
2015,06,29,04,16,15.60
2015,06,29,04,17,15.60
2015,06,29,04,18,15.60
2015,06,29,04,19,15.50
2015,06,29,04,20,15.50
2015,06,29,04,21,15.40
2015,06,29,04,22,15.40
2015,06,29,04,23,15.40
2015,06,29,04,24,15.40
2015,06,29,04,25,15.40
2015,06,29,04,26,15.30
2015,06,29,04,27,15.30
2015,06,29,04,28,15.30
2015,06,29,04,29,15.30
2015,06,29,04,30,15.30
2015,06,29,04,31,15.30
2015,06,29,04,32,15.30
2015,06,29,04,33,15.30
2015,06,29,04,34,15.30
2015,06,29,04,35,15.30
2015,06,29,04,36,15.30
2015,06,29,04,37,15.30
2015,06,29,04,38,15.30
2015,06,29,04,39,15.30
2015,06,29,04,40,15.30
2015,06,29,04,41,15.20
2015,06,29,04,42,15.20
2015,06,29,04,43,15.20
2015,06,29,04,44,15.20
2015,06,29,04,45,15.20
2015,06,29,04,46,15.20
2015,06,29,04,47,15.20
2015,06,29,04,48,15.20
2015,06,29,04,49,15.20
2015,06,29,04,50,15.20
2015,06,29,04,51,15.20
2015,06,29,04,52,15.20
2015,06,29,04,53,15.20
2015,06,29,04,54,15.20
2015,06,29,04,55,15.20
2015,06,29,04,56,15.20
2015,06,29,04,57,15.20
2015,06,29,04,58,15.20
2015,06,29,04,59,15.20
2015,06,29,05,00,15.20
2015,06,29,05,01,15.20
2015,06,29,05,02,15.20
2015,06,29,05,03,15.20
2015,06,29,05,04,15.20
2015,06,29,05,05,15.20
2015,06,29,05,06,15.20
2015,06,29,05,07,15.20
2015,06,29,05,08,15.20
2015,06,29,05,09,15.20
2015,06,29,05,10,15.20
2015,06,29,05,11,15.20
2015,06,29,05,12,15.20
2015,06,29,05,13,15.20
2015,06,29,05,14,15.20
2015,06,29,05,15,15.20
2015,06,29,05,16,15.20
2015,06,29,05,17,15.20
2015,06,29,05,18,15.20
2015,06,29,05,19,15.20
2015,06,29,05,20,15.10
2015,06,29,05,21,15.20
2015,06,29,05,22,15.20
2015,06,29,05,23,15.20
2015,06,29,05,24,15.20
2015,06,29,05,25,15.20
2015,06,29,05,26,15.20
2015,06,29,05,27,15.20
2015,06,29,05,28,15.20
2015,06,29,05,29,15.20
2015,06,29,05,30,15.20
2015,06,29,05,31,15.20
2015,06,29,05,32,15.30
2015,06,29,05,33,15.30
2015,06,29,05,34,15.30
2015,06,29,05,35,15.30
2015,06,29,05,36,15.30
2015,06,29,05,37,15.30
2015,06,29,05,38,15.40
2015,06,29,05,39,15.40
2015,06,29,05,40,15.40
2015,06,29,05,41,15.40
2015,06,29,05,42,15.40
2015,06,29,05,43,15.40
2015,06,29,05,44,15.40
2015,06,29,05,45,15.40
2015,06,29,05,46,15.30
2015,06,29,05,47,15.30
2015,06,29,05,48,15.30
2015,06,29,05,49,15.30
2015,06,29,05,50,15.30
2015,06,29,05,51,15.30
2015,06,29,05,52,15.30
2015,06,29,05,53,15.30
2015,06,29,05,54,15.30
2015,06,29,05,55,15.30
2015,06,29,05,56,15.30
2015,06,29,05,57,15.30
2015,06,29,05,58,15.30
2015,06,29,05,59,15.30
2015,06,29,06,00,15.30
2015,06,29,06,01,15.30
2015,06,29,06,02,15.30
2015,06,29,06,03,15.30
2015,06,29,06,04,15.30
2015,06,29,06,05,15.30
2015,06,29,06,06,15.30
2015,06,29,06,07,15.30
2015,06,29,06,08,15.30
2015,06,29,06,09,15.30
2015,06,29,06,10,15.30
2015,06,29,06,11,15.30
2015,06,29,06,12,15.30
2015,06,29,06,13,15.30
2015,06,29,06,14,15.30
2015,06,29,06,15,15.30
2015,06,29,06,16,15.30
2015,06,29,06,17,15.30
2015,06,29,06,18,15.30
2015,06,29,06,19,15.20
2015,06,29,06,20,15.20
2015,06,29,06,21,15.20
2015,06,29,06,22,15.20
2015,06,29,06,23,15.20
2015,06,29,06,24,15.20
2015,06,29,06,25,15.20
2015,06,29,06,26,15.20
2015,06,29,06,27,15.20
2015,06,29,06,28,15.20
2015,06,29,06,29,15.20
2015,06,29,06,30,15.30
2015,06,29,06,31,15.30
2015,06,29,06,32,15.30
2015,06,29,06,33,15.30
2015,06,29,06,34,15.30
2015,06,29,06,35,15.30
2015,06,29,06,36,15.30
2015,06,29,06,37,15.40
2015,06,29,06,38,15.40
2015,06,29,06,39,15.50
2015,06,29,06,40,15.50
2015,06,29,06,41,15.60
2015,06,29,06,42,15.60
2015,06,29,06,43,15.70
2015,06,29,06,44,15.80
2015,06,29,06,45,15.80
2015,06,29,06,46,15.90
2015,06,29,06,47,16.00
2015,06,29,06,48,16.10
2015,06,29,06,49,16.10
2015,06,29,06,50,16.20
2015,06,29,06,51,16.20
2015,06,29,06,52,16.30
2015,06,29,06,53,16.30
2015,06,29,06,54,16.30
2015,06,29,06,55,16.30
2015,06,29,06,56,16.40
2015,06,29,06,57,16.40
2015,06,29,06,58,16.40
2015,06,29,06,59,16.40
2015,06,29,07,00,16.40
2015,06,29,07,01,16.40
2015,06,29,07,02,16.50
2015,06,29,07,03,16.60
2015,06,29,07,04,16.60
2015,06,29,07,05,16.70
2015,06,29,07,06,16.80
2015,06,29,07,07,16.90
2015,06,29,07,08,16.90
2015,06,29,07,09,17.00
2015,06,29,07,10,17.10
2015,06,29,07,11,17.20
2015,06,29,07,12,17.20
2015,06,29,07,13,17.20
2015,06,29,07,14,17.30
2015,06,29,07,15,17.20
2015,06,29,07,16,17.20
2015,06,29,07,17,17.10
2015,06,29,07,18,17.10
2015,06,29,07,19,17.00
2015,06,29,07,20,16.90
2015,06,29,07,21,16.80
2015,06,29,07,22,16.80
2015,06,29,07,23,16.80
2015,06,29,07,24,16.80
2015,06,29,07,25,16.70
2015,06,29,07,26,16.70
2015,06,29,07,27,16.70
2015,06,29,07,28,16.60
2015,06,29,07,29,16.60
2015,06,29,07,30,16.60
2015,06,29,07,31,16.60
2015,06,29,07,32,16.60
2015,06,29,07,33,16.60
2015,06,29,07,34,16.60
2015,06,29,07,35,16.60
2015,06,29,07,36,16.60
2015,06,29,07,37,16.60
2015,06,29,07,38,16.60
2015,06,29,07,39,16.70
2015,06,29,07,40,16.70
2015,06,29,07,41,16.80
2015,06,29,07,42,16.80
2015,06,29,07,43,16.80
2015,06,29,07,44,16.80
2015,06,29,07,45,16.90
2015,06,29,07,46,16.90
2015,06,29,07,47,16.90
2015,06,29,07,48,16.90
2015,06,29,07,49,16.90
2015,06,29,07,50,16.90
2015,06,29,07,51,16.90
2015,06,29,07,52,16.80
2015,06,29,07,53,16.80
2015,06,29,07,54,16.80
2015,06,29,07,55,16.80
2015,06,29,07,56,16.90
2015,06,29,07,57,16.90
2015,06,29,07,58,17.00
2015,06,29,07,59,17.00
2015,06,29,08,00,17.10
2015,06,29,08,01,17.10
2015,06,29,08,02,17.20
2015,06,29,08,03,17.20
2015,06,29,08,04,17.30
2015,06,29,08,05,17.40
2015,06,29,08,06,17.50
2015,06,29,08,07,17.60
2015,06,29,08,08,17.70
2015,06,29,08,09,17.80
2015,06,29,08,10,17.90
2015,06,29,08,11,17.90
2015,06,29,08,12,18.00
2015,06,29,08,13,18.10
2015,06,29,08,14,18.20
2015,06,29,08,15,18.30
2015,06,29,08,16,18.40
2015,06,29,08,17,18.40
2015,06,29,08,18,18.50
2015,06,29,08,19,18.50
2015,06,29,08,20,18.50
2015,06,29,08,21,18.60
2015,06,29,08,22,18.60
2015,06,29,08,23,18.60
2015,06,29,08,24,18.70
2015,06,29,08,25,18.80
2015,06,29,08,26,18.90
2015,06,29,08,27,18.90
2015,06,29,08,28,18.90
2015,06,29,08,29,18.90
2015,06,29,08,30,18.80
2015,06,29,08,31,18.80
2015,06,29,08,32,18.80
2015,06,29,08,33,18.90
2015,06,29,08,34,18.90
2015,06,29,08,35,18.90
2015,06,29,08,36,18.90
2015,06,29,08,37,19.00
2015,06,29,08,38,19.00
2015,06,29,08,39,19.10
2015,06,29,08,40,19.00
2015,06,29,08,41,19.00
2015,06,29,08,42,19.00
2015,06,29,08,43,19.00
2015,06,29,08,44,19.00
2015,06,29,08,45,19.00
2015,06,29,08,46,19.00
2015,06,29,08,47,19.00
2015,06,29,08,48,19.00
2015,06,29,08,49,19.10
2015,06,29,08,50,19.10
2015,06,29,08,51,19.20
2015,06,29,08,52,19.20
2015,06,29,08,53,19.20
2015,06,29,08,54,19.20
2015,06,29,08,55,19.20
2015,06,29,08,56,19.10
2015,06,29,08,57,19.10
2015,06,29,08,58,19.10
2015,06,29,08,59,19.10
2015,06,29,09,00,19.20
2015,06,29,09,01,19.20
2015,06,29,09,02,19.30
2015,06,29,09,03,19.30
2015,06,29,09,04,19.40
2015,06,29,09,05,19.50
2015,06,29,09,06,19.60
2015,06,29,09,07,19.80
2015,06,29,09,08,19.90
2015,06,29,09,09,20.10
2015,06,29,09,10,20.20
2015,06,29,09,11,20.20
2015,06,29,09,12,20.20
2015,06,29,09,13,20.20
2015,06,29,09,14,20.20
2015,06,29,09,15,20.20
2015,06,29,09,16,20.20
2015,06,29,09,17,20.20
2015,06,29,09,18,20.30
2015,06,29,09,19,20.30
2015,06,29,09,20,20.10
2015,06,29,09,21,19.90
2015,06,29,09,22,19.80
2015,06,29,09,23,19.60
2015,06,29,09,24,19.50
2015,06,29,09,25,19.40
2015,06,29,09,26,19.40
2015,06,29,09,27,19.40
2015,06,29,09,28,19.40
2015,06,29,09,29,19.40
2015,06,29,09,30,19.40
2015,06,29,09,31,19.50
2015,06,29,09,32,19.50
2015,06,29,09,33,19.60
2015,06,29,09,34,19.60
2015,06,29,09,35,19.60
2015,06,29,09,36,19.50
2015,06,29,09,37,19.40
2015,06,29,09,38,19.40
2015,06,29,09,39,19.30
2015,06,29,09,40,19.30
2015,06,29,09,41,19.30
2015,06,29,09,42,19.30
2015,06,29,09,43,19.40
2015,06,29,09,44,19.40
2015,06,29,09,45,19.30
2015,06,29,09,46,19.20
2015,06,29,09,47,19.20
2015,06,29,09,48,19.20
2015,06,29,09,49,19.10
2015,06,29,09,50,19.10
2015,06,29,09,51,19.10
2015,06,29,09,52,19.10
2015,06,29,09,53,19.10
2015,06,29,09,54,19.20
2015,06,29,09,55,19.20
2015,06,29,09,56,19.20
2015,06,29,09,57,19.30
2015,06,29,09,58,19.40
2015,06,29,09,59,19.50
2015,06,29,10,00,19.60
2015,06,29,10,01,19.60
2015,06,29,10,02,19.70
2015,06,29,10,03,19.70
2015,06,29,10,04,19.70
2015,06,29,10,05,19.70
2015,06,29,10,06,19.70
2015,06,29,10,07,19.70
2015,06,29,10,08,19.60
2015,06,29,10,09,19.50
2015,06,29,10,10,19.40
2015,06,29,10,11,19.20
2015,06,29,10,12,19.10
2015,06,29,10,13,18.90
2015,06,29,10,14,18.80
2015,06,29,10,15,18.70
2015,06,29,10,16,18.70
2015,06,29,10,17,18.70
2015,06,29,10,18,18.70
2015,06,29,10,19,18.60
2015,06,29,10,20,18.60
2015,06,29,10,21,18.60
2015,06,29,10,22,18.50
2015,06,29,10,23,18.50
2015,06,29,10,24,18.40
2015,06,29,10,25,18.40
2015,06,29,10,26,18.30
2015,06,29,10,27,18.20
2015,06,29,10,28,18.10
2015,06,29,10,29,18.10
2015,06,29,10,30,18.10
2015,06,29,10,31,18.00
2015,06,29,10,32,17.90
2015,06,29,10,33,17.90
2015,06,29,10,34,17.90
2015,06,29,10,35,18.00
2015,06,29,10,36,18.00
2015,06,29,10,37,18.10
2015,06,29,10,38,18.10
2015,06,29,10,39,18.10
2015,06,29,10,40,18.20
2015,06,29,10,41,18.40
2015,06,29,10,42,18.50
2015,06,29,10,43,18.70
2015,06,29,10,44,18.80
2015,06,29,10,45,18.80
2015,06,29,10,46,18.80
2015,06,29,10,47,18.80
2015,06,29,10,48,18.70
2015,06,29,10,49,18.60
2015,06,29,10,50,18.50
2015,06,29,10,51,18.40
2015,06,29,10,52,18.20
2015,06,29,10,53,18.30
2015,06,29,10,54,18.30
2015,06,29,10,55,18.40
2015,06,29,10,56,18.20
2015,06,29,10,57,18.10
2015,06,29,10,58,17.80
2015,06,29,10,59,17.70
2015,06,29,11,00,17.60
2015,06,29,11,01,17.60
2015,06,29,11,02,17.50
2015,06,29,11,03,17.50
2015,06,29,11,04,17.40
2015,06,29,11,05,17.50
2015,06,29,11,06,17.60
2015,06,29,11,07,17.50
2015,06,29,11,08,17.50
2015,06,29,11,09,17.60
2015,06,29,11,10,17.60
2015,06,29,11,11,17.70
2015,06,29,11,12,17.70
2015,06,29,11,13,17.80
2015,06,29,11,14,17.90
2015,06,29,11,15,18.10
2015,06,29,11,16,18.20
2015,06,29,11,17,18.30
2015,06,29,11,18,18.30
2015,06,29,11,19,18.40
2015,06,29,11,20,18.40
2015,06,29,11,21,18.50
2015,06,29,11,22,18.60
2015,06,29,11,23,18.60
2015,06,29,11,24,18.70
2015,06,29,11,25,18.70
2015,06,29,11,26,18.80
2015,06,29,11,27,18.90
2015,06,29,11,28,19.00
2015,06,29,11,29,19.00
2015,06,29,11,30,19.00
2015,06,29,11,31,19.00
2015,06,29,11,32,18.90
2015,06,29,11,33,18.90
2015,06,29,11,34,18.90
2015,06,29,11,35,19.00
2015,06,29,11,36,18.90
2015,06,29,11,37,18.90
2015,06,29,11,38,18.80
2015,06,29,11,39,18.80
2015,06,29,11,40,18.80
2015,06,29,11,41,18.80
2015,06,29,11,42,18.80
2015,06,29,11,43,18.80
2015,06,29,11,44,18.70
2015,06,29,11,45,18.60
2015,06,29,11,46,18.50
2015,06,29,11,47,18.60
2015,06,29,11,48,18.60
2015,06,29,11,49,18.60
2015,06,29,11,50,18.60
2015,06,29,11,51,18.60
2015,06,29,11,52,18.60
2015,06,29,11,53,18.60
2015,06,29,11,54,18.50
2015,06,29,11,55,18.50
2015,06,29,11,56,18.60
2015,06,29,11,57,18.70
2015,06,29,11,58,18.80
2015,06,29,11,59,18.90
2015,06,29,12,00,19.00
2015,06,29,12,01,19.10
2015,06,29,12,02,19.00
2015,06,29,12,03,19.00
2015,06,29,12,04,18.90
2015,06,29,12,05,18.90
2015,06,29,12,06,18.90
2015,06,29,12,07,19.10
2015,06,29,12,08,19.20
2015,06,29,12,09,19.30
2015,06,29,12,10,19.40
2015,06,29,12,11,19.50
2015,06,29,12,12,19.60
2015,06,29,12,13,19.60
2015,06,29,12,14,19.50
2015,06,29,12,15,19.50
2015,06,29,12,16,19.40
2015,06,29,12,17,19.40
2015,06,29,12,18,19.50
2015,06,29,12,19,19.50
2015,06,29,12,20,19.60
2015,06,29,12,21,19.60
2015,06,29,12,22,19.70
2015,06,29,12,23,19.80
2015,06,29,12,24,19.90
2015,06,29,12,25,19.80
2015,06,29,12,26,19.70
2015,06,29,12,27,19.50
2015,06,29,12,28,19.30
2015,06,29,12,29,19.20
2015,06,29,12,30,19.10
2015,06,29,12,31,19.00
2015,06,29,12,32,19.00
2015,06,29,12,33,18.90
2015,06,29,12,34,18.90
2015,06,29,12,35,18.90
2015,06,29,12,36,18.80
2015,06,29,12,37,18.80
2015,06,29,12,38,18.70
2015,06,29,12,39,18.70
2015,06,29,12,40,18.70
2015,06,29,12,41,18.60
2015,06,29,12,42,18.50
2015,06,29,12,43,18.30
2015,06,29,12,44,18.20
2015,06,29,12,45,18.10
2015,06,29,12,46,18.10
2015,06,29,12,47,18.20
2015,06,29,12,48,18.30
2015,06,29,12,49,18.40
2015,06,29,12,50,18.40
2015,06,29,12,51,18.40
2015,06,29,12,52,18.40
2015,06,29,12,53,18.40
2015,06,29,12,54,18.40
2015,06,29,12,55,18.30
2015,06,29,12,56,18.40
2015,06,29,12,57,18.40
2015,06,29,12,58,18.30
2015,06,29,12,59,18.20
2015,06,29,13,00,18.10
2015,06,29,13,01,18.00
2015,06,29,13,02,17.90
2015,06,29,13,03,17.90
2015,06,29,13,04,18.00
2015,06,29,13,05,18.10
2015,06,29,13,06,18.10
2015,06,29,13,07,18.20
2015,06,29,13,08,18.20
2015,06,29,13,09,18.20
2015,06,29,13,10,18.30
2015,06,29,13,11,18.40
2015,06,29,13,12,18.50
2015,06,29,13,13,18.60
2015,06,29,13,14,18.70
2015,06,29,13,15,18.80
2015,06,29,13,16,18.90
2015,06,29,13,17,18.90
2015,06,29,13,18,18.90
2015,06,29,13,19,18.90
2015,06,29,13,20,19.00
2015,06,29,13,21,19.10
2015,06,29,13,22,19.20
2015,06,29,13,23,19.30
2015,06,29,13,24,19.40
2015,06,29,13,25,19.40
2015,06,29,13,26,19.50
2015,06,29,13,27,19.50
2015,06,29,13,28,19.60
2015,06,29,13,29,19.60
2015,06,29,13,30,19.70
2015,06,29,13,31,19.80
2015,06,29,13,32,19.90
2015,06,29,13,33,20.00
2015,06,29,13,34,20.00
2015,06,29,13,35,20.10
2015,06,29,13,36,20.10
2015,06,29,13,37,20.10
2015,06,29,13,38,20.10
2015,06,29,13,39,20.20
2015,06,29,13,40,20.20
2015,06,29,13,41,20.40
2015,06,29,13,42,20.50
2015,06,29,13,43,20.60
2015,06,29,13,44,20.70
2015,06,29,13,45,20.90
2015,06,29,13,46,21.00
2015,06,29,13,47,21.10
2015,06,29,13,48,21.20
2015,06,29,13,49,21.20
2015,06,29,13,50,21.30
2015,06,29,13,51,21.30
2015,06,29,13,52,21.30
2015,06,29,13,53,21.30
2015,06,29,13,54,21.30
2015,06,29,13,55,21.30
2015,06,29,13,56,21.20
2015,06,29,13,57,21.20
2015,06,29,13,58,21.20
2015,06,29,13,59,21.10
2015,06,29,14,00,21.00
2015,06,29,14,01,21.00
2015,06,29,14,02,21.00
2015,06,29,14,03,21.00
2015,06,29,14,04,21.00
2015,06,29,14,05,20.90
2015,06,29,14,06,20.80
2015,06,29,14,07,20.70
2015,06,29,14,08,20.70
2015,06,29,14,09,20.60
2015,06,29,14,10,20.60
2015,06,29,14,11,20.60
2015,06,29,14,12,20.70
2015,06,29,14,13,20.70
2015,06,29,14,14,20.70
2015,06,29,14,15,20.70
2015,06,29,14,16,20.70
2015,06,29,14,17,20.70
2015,06,29,14,18,20.70
2015,06,29,14,19,20.60
2015,06,29,14,20,20.50
2015,06,29,14,21,20.40
2015,06,29,14,22,20.30
2015,06,29,14,23,20.30
2015,06,29,14,24,20.20
2015,06,29,14,25,20.20
2015,06,29,14,26,20.10
2015,06,29,14,27,20.00
2015,06,29,14,28,19.90
2015,06,29,14,29,19.90
2015,06,29,14,30,19.80
2015,06,29,14,31,19.80
2015,06,29,14,32,19.70
2015,06,29,14,33,19.70
2015,06,29,14,34,19.70
2015,06,29,14,35,19.80
2015,06,29,14,36,19.90
2015,06,29,14,37,20.00
2015,06,29,14,38,20.00
2015,06,29,14,39,20.10
2015,06,29,14,40,20.20
2015,06,29,14,41,20.20
2015,06,29,14,42,20.30
2015,06,29,14,43,20.30
2015,06,29,14,44,20.30
2015,06,29,14,45,20.30
2015,06,29,14,46,20.30
2015,06,29,14,47,20.50
2015,06,29,14,48,20.60
2015,06,29,14,49,20.70
2015,06,29,14,50,20.70
2015,06,29,14,51,20.70
2015,06,29,14,52,20.80
2015,06,29,14,53,20.80
2015,06,29,14,54,20.70
2015,06,29,14,55,20.70
2015,06,29,14,56,20.60
2015,06,29,14,57,20.60
2015,06,29,14,58,20.50
2015,06,29,14,59,20.40
2015,06,29,15,00,20.30
2015,06,29,15,01,20.20
2015,06,29,15,02,20.10
2015,06,29,15,03,20.00
2015,06,29,15,04,19.80
2015,06,29,15,05,19.60
2015,06,29,15,06,19.40
2015,06,29,15,07,19.10
2015,06,29,15,08,18.80
2015,06,29,15,09,18.60
2015,06,29,15,10,18.60
2015,06,29,15,11,18.50
2015,06,29,15,12,18.50
2015,06,29,15,13,18.50
2015,06,29,15,14,18.50
2015,06,29,15,15,18.60
2015,06,29,15,16,18.60
2015,06,29,15,17,18.60
2015,06,29,15,18,18.60
2015,06,29,15,19,18.70
2015,06,29,15,20,18.80
2015,06,29,15,21,18.80
2015,06,29,15,22,18.80
2015,06,29,15,23,18.90
2015,06,29,15,24,18.90
2015,06,29,15,25,19.00
2015,06,29,15,26,18.90
2015,06,29,15,27,18.80
2015,06,29,15,28,18.70
2015,06,29,15,29,18.60
2015,06,29,15,30,18.50
2015,06,29,15,31,18.40
2015,06,29,15,32,18.40
2015,06,29,15,33,18.40
2015,06,29,15,34,18.30
2015,06,29,15,35,18.30
2015,06,29,15,36,18.30
2015,06,29,15,37,18.30
2015,06,29,15,38,18.20
2015,06,29,15,39,18.30
2015,06,29,15,40,18.30
2015,06,29,15,41,18.30
2015,06,29,15,42,18.30
2015,06,29,15,43,18.40
2015,06,29,15,44,18.40
2015,06,29,15,45,18.40
2015,06,29,15,46,18.40
2015,06,29,15,47,18.50
2015,06,29,15,48,18.60
2015,06,29,15,49,18.60
2015,06,29,15,50,18.70
2015,06,29,15,51,18.70
2015,06,29,15,52,18.60
2015,06,29,15,53,18.60
2015,06,29,15,54,18.50
2015,06,29,15,55,18.50
2015,06,29,15,56,18.40
2015,06,29,15,57,18.40
2015,06,29,15,58,18.40
2015,06,29,15,59,18.30
2015,06,29,16,00,18.20
2015,06,29,16,01,18.10
2015,06,29,16,02,18.10
2015,06,29,16,03,18.00
2015,06,29,16,04,17.90
2015,06,29,16,05,17.90
2015,06,29,16,06,17.90
2015,06,29,16,07,17.90
2015,06,29,16,08,18.00
2015,06,29,16,09,18.10
2015,06,29,16,10,18.10
2015,06,29,16,11,18.20
2015,06,29,16,12,18.30
2015,06,29,16,13,18.50
2015,06,29,16,14,18.60
2015,06,29,16,15,18.60
2015,06,29,16,16,18.60
2015,06,29,16,17,18.50
2015,06,29,16,18,18.40
2015,06,29,16,19,18.40
2015,06,29,16,20,18.30
2015,06,29,16,21,18.20
2015,06,29,16,22,18.10
2015,06,29,16,23,17.90
2015,06,29,16,24,17.80
2015,06,29,16,25,17.80
2015,06,29,16,26,17.70
2015,06,29,16,27,17.70
2015,06,29,16,28,17.60
2015,06,29,16,29,17.70
2015,06,29,16,30,17.70
2015,06,29,16,31,17.80
2015,06,29,16,32,17.80
2015,06,29,16,33,17.90
2015,06,29,16,34,17.90
2015,06,29,16,35,18.00
2015,06,29,16,36,18.00
2015,06,29,16,37,18.10
2015,06,29,16,38,18.10
2015,06,29,16,39,18.20
2015,06,29,16,40,18.30
2015,06,29,16,41,18.40
2015,06,29,16,42,18.50
2015,06,29,16,43,18.70
2015,06,29,16,44,18.80
2015,06,29,16,45,18.80
2015,06,29,16,46,18.80
2015,06,29,16,47,18.80
2015,06,29,16,48,18.80
2015,06,29,16,49,18.80
2015,06,29,16,50,18.80
2015,06,29,16,51,19.00
2015,06,29,16,52,19.10
2015,06,29,16,53,19.10
2015,06,29,16,54,19.10
2015,06,29,16,55,19.10
2015,06,29,16,56,19.10
2015,06,29,16,57,19.00
2015,06,29,16,58,19.00
2015,06,29,16,59,19.00
2015,06,29,17,00,19.10
2015,06,29,17,01,19.00
2015,06,29,17,02,18.90
2015,06,29,17,03,18.80
2015,06,29,17,04,18.80
2015,06,29,17,05,18.80
2015,06,29,17,06,18.80
2015,06,29,17,07,18.90
2015,06,29,17,08,19.00
2015,06,29,17,09,19.10
2015,06,29,17,10,19.30
2015,06,29,17,11,19.30
2015,06,29,17,12,19.30
2015,06,29,17,13,19.30
2015,06,29,17,14,19.30
2015,06,29,17,15,19.20
2015,06,29,17,16,19.20
2015,06,29,17,17,19.20
2015,06,29,17,18,19.20
2015,06,29,17,19,19.20
2015,06,29,17,20,19.20
2015,06,29,17,21,19.10
2015,06,29,17,22,19.10
2015,06,29,17,23,19.00